Hourly Data Report for October 02, 2017

All times are specified in Local Standard Time (LST). Add 1 hour to adjust for Daylight Saving Time where and when it is observed.

VICTORIA UNIVERSITY CS
BRITISH COLUMBIA

48°27'25.200" N
123°18'16.600" W
60.10 m
1018598
71783
WYJ

Download Data

Hourly Data (October 2017)
Hourly Data Report for October 2, 2017
Temp Definition
°C
Dew Point Temp Definition
°C
Rel Hum Definition
%
Wind Dir Definition
10's deg

Wind Spd Definition
km/h
Visibility Definition
km
Stn Press Definition
kPa
Hmdx Definition


Wind Chill Definition


Weather Definition


TIME
00:00 6.6 5.6 93 28 2   101.32     LegendNANA
01:00 6.2 5.4 95 33 3   101.32     LegendNANA
02:00 7.2 5.5 89 29 3   101.31     LegendNANA
03:00 7.9 5.8 86 28 4   101.31     LegendNANA
04:00 9.8 6.4 79 30 7   101.33     LegendNANA
05:00 10.5 6.4 76 34 6   101.35     LegendNANA
06:00 10.3 6.7 79 32 6   101.36     LegendNANA
07:00 11.0 6.9 76 34 8   101.38     LegendNANA
08:00 11.7 6.8 72 34 9   101.40     LegendNANA
09:00 13.1 7.6 69 35 11   101.42     LegendNANA
10:00 14.2 7.7 65 35 12   101.44     LegendNANA
11:00 15.6 6.8 56 36 11   101.46     LegendNANA
12:00 16.4 6.1 50 35 15   101.47     LegendNANA
13:00 16.6 4.6 45 36 16   101.49     LegendNANA
14:00 17.2 3.8 41 35 10   101.48     LegendNANA
15:00 17.5 4.3 42 36 10   101.50     LegendNANA
16:00 16.9 1.5 35 33 10   101.51     LegendNANA
17:00 16.2 2.1 39 33 6   101.53     LegendNANA
18:00 12.8 5.0 59 25 4   101.56     LegendNANA
19:00 10.4 5.0 69 25 2   101.61     LegendNANA
20:00 8.9 4.5 74 26 3   101.67     LegendNANA
21:00 8.4 4.0 74 26 3   101.70     LegendNANA
22:00 8.2 2.5 67 31 3   101.74     LegendNANA
23:00 11.6 1.7 51 30 5   101.75     LegendNANA

Notes on Data Quality.

Legend

  • E = Estimated
  • M = Missing
  • NA = Not Available
  • ‡ = Partner data that is not subject to review by the National Climate Archives
Date modified: